When you browse on this site, cookies collect data to enhance your experience and personalize the content and advertising you see.
Visit our Privacy Policy to learn more. By continuing to use the site, you agree to this use of cookies and data.
  • în România
  • Lista ţărilor
  • Pe 7 zile
  • Temperatura apei
  • Meteo pe hartă
  • Widget-uri
  • user-avatar
    Intrare

    Meteo pe oră la Chitré

    Astăzi, 1 Iunie, Luni

    Timp Temperatura Precipitaţii Vânt Presiune Umiditate
    00:00 +27°C° 0 mm 2 m/s 757 mmHg 89%
    01:00 +27°C° 0 mm 2 m/s 756 mmHg 88%
    02:00 +27°C° 0 mm 2 m/s 756 mmHg 89%
    03:00 +27°C° 0 mm 1 m/s 756 mmHg 89%
    04:00 +26°C° 0 mm 1 m/s 756 mmHg 89%
    05:00 +27°C° 0 mm 1 m/s 756 mmHg 88%
    06:00 +27°C° 0 mm 1 m/s 756 mmHg 87%
    07:00 +27°C° 0 mm 1 m/s 757 mmHg 87%
    08:00 +28°C° 0.1 mm 1 m/s 757 mmHg 81%
    09:00 +30°C° 0.1 mm 1 m/s 757 mmHg 76%
    10:00 +31°C° 0.1 mm 1 m/s 758 mmHg 70%
    11:00 +31°C° 1.9 mm 1 m/s 757 mmHg 70%
    12:00 +32°C° 1.9 mm 2 m/s 757 mmHg 70%
    13:00 +33°C° 1.9 mm 3 m/s 756 mmHg 69%
    14:00 +32°C° 3 mm 2 m/s 756 mmHg 71%
    15:00 +31°C° 3 mm 2 m/s 755 mmHg 73%
    16:00 +31°C° 3 mm 2 m/s 755 mmHg 75%
    17:00 +30°C° 1.3 mm 2 m/s 755 mmHg 79%
    18:00 +29°C° 1.3 mm 2 m/s 755 mmHg 82%
    19:00 +28°C° 1.3 mm 2 m/s 755 mmHg 86%
    20:00 +28°C° 0 mm 3 m/s 756 mmHg 87%
    21:00 +28°C° 0 mm 3 m/s 756 mmHg 88%
    22:00 +28°C° 0 mm 3 m/s 757 mmHg 89%
    23:00 +27°C° 0 mm 3 m/s 756 mmHg 89%

    Mâine, 2 Iunie, Marţi

    Timp Temperatura Precipitaţii Vânt Presiune Umiditate
    00:00 +27°C° 0 mm 3 m/s 756 mmHg 90%
    01:00 +27°C° 0 mm 3 m/s 756 mmHg 90%
    02:00 +27°C° 0 mm 3 m/s 756 mmHg 90%
    03:00 +27°C° 0 mm 2 m/s 755 mmHg 90%
    04:00 +27°C° 0 mm 2 m/s 755 mmHg 90%
    05:00 +27°C° 0 mm 2 m/s 755 mmHg 89%
    06:00 +27°C° 0 mm 2 m/s 755 mmHg 88%
    07:00 +27°C° 0 mm 2 m/s 755 mmHg 87%
    08:00 +29°C° 0.4 mm 2 m/s 756 mmHg 82%
    09:00 +30°C° 0.4 mm 2 m/s 756 mmHg 76%
    10:00 +31°C° 0.4 mm 2 m/s 756 mmHg 71%
    11:00 +32°C° 1.9 mm 1 m/s 756 mmHg 70%
    12:00 +32°C° 1.9 mm 1 m/s 755 mmHg 69%
    13:00 +32°C° 1.9 mm 1 m/s 755 mmHg 69%
    14:00 +32°C° 1.7 mm 1 m/s 754 mmHg 71%
    15:00 +31°C° 1.7 mm 2 m/s 754 mmHg 73%
    16:00 +31°C° 1.7 mm 2 m/s 753 mmHg 75%
    17:00 +30°C° 1 mm 2 m/s 754 mmHg 79%
    18:00 +29°C° 1 mm 2 m/s 754 mmHg 83%
    19:00 +28°C° 1 mm 2 m/s 755 mmHg 86%
    20:00 +28°C° 0.2 mm 2 m/s 755 mmHg 87%
    21:00 +28°C° 0.2 mm 3 m/s 756 mmHg 88%
    22:00 +27°C° 0.2 mm 3 m/s 756 mmHg 89%
    23:00 +27°C° 0.4 mm 3 m/s 756 mmHg 88%

    Poimâine, 3 Iunie, Miercuri

    Timp Temperatura Precipitaţii Vânt Presiune Umiditate
    00:00 +27°C° 0.4 mm 3 m/s 756 mmHg 88%
    01:00 +27°C° 0.4 mm 2 m/s 755 mmHg 88%
    02:00 +27°C° 0 mm 2 m/s 755 mmHg 88%
    03:00 +27°C° 0 mm 2 m/s 754 mmHg 89%
    04:00 +27°C° 0 mm 2 m/s 754 mmHg 89%
    05:00 +27°C° 0.3 mm 2 m/s 754 mmHg 89%
    06:00 +27°C° 0.3 mm 2 m/s 754 mmHg 89%
    07:00 +27°C° 0.3 mm 2 m/s 754 mmHg 89%
    08:00 +27°C° 0.8 mm 2 m/s 755 mmHg 88%
    09:00 +28°C° 0.8 mm 3 m/s 755 mmHg 87%
    10:00 +28°C° 0.8 mm 3 m/s 756 mmHg 86%
    11:00 +27°C° 1.3 mm 3 m/s 756 mmHg 88%
    12:00 +27°C° 1.3 mm 3 m/s 755 mmHg 89%
    13:00 +27°C° 1.3 mm 3 m/s 755 mmHg 91%
    14:00 +26°C° 1.8 mm 2 m/s 754 mmHg 92%
    15:00 +26°C° 1.8 mm 2 m/s 754 mmHg 92%
    16:00 +26°C° 1.8 mm 1 m/s 754 mmHg 93%
    17:00 +26°C° 1.5 mm 2 m/s 754 mmHg 93%
    18:00 +26°C° 1.5 mm 2 m/s 754 mmHg 93%
    19:00 +25°C° 1.5 mm 2 m/s 755 mmHg 93%
    20:00 +25°C° 0.2 mm 2 m/s 755 mmHg 93%
    21:00 +26°C° 0.2 mm 2 m/s 755 mmHg 93%
    22:00 +26°C° 0.2 mm 2 m/s 756 mmHg 93%
    23:00 +26°C° 0.2 mm 2 m/s 756 mmHg 94%

    4 Iunie, Joi

    Timp Temperatura Precipitaţii Vânt Presiune Umiditate
    00:00 +25°C° 0.2 mm 2 m/s 755 mmHg 94%
    01:00 +25°C° 0.2 mm 2 m/s 755 mmHg 94%
    02:00 +25°C° 0.1 mm 2 m/s 755 mmHg 93%
    03:00 +26°C° 0.1 mm 2 m/s 755 mmHg 91%
    04:00 +26°C° 0.1 mm 1 m/s 754 mmHg 90%
    05:00 +26°C° 0 mm 1 m/s 755 mmHg 90%
    06:00 +26°C° 0 mm 2 m/s 755 mmHg 89%
    07:00 +26°C° 0 mm 2 m/s 755 mmHg 89%
    08:00 +27°C° 0 mm 2 m/s 755 mmHg 84%
    09:00 +29°C° 0 mm 1 m/s 756 mmHg 79%
    10:00 +30°C° 0 mm 1 m/s 756 mmHg 75%
    11:00 +30°C° 1.4 mm 1 m/s 756 mmHg 74%
    12:00 +31°C° 1.4 mm 1 m/s 755 mmHg 74%
    13:00 +31°C° 1.4 mm 1 m/s 755 mmHg 73%
    14:00 +31°C° 3.2 mm 2 m/s 755 mmHg 76%
    15:00 +30°C° 3.2 mm 2 m/s 754 mmHg 79%
    16:00 +29°C° 3.2 mm 2 m/s 753 mmHg 82%
    17:00 +29°C° 1.8 mm 2 m/s 754 mmHg 84%
    18:00 +28°C° 1.8 mm 2 m/s 754 mmHg 86%
    19:00 +28°C° 1.8 mm 1 m/s 754 mmHg 88%
    20:00 +28°C° 0.1 mm 2 m/s 755 mmHg 89%
    21:00 +27°C° 0.1 mm 2 m/s 755 mmHg 89%
    22:00 +27°C° 0.1 mm 2 m/s 756 mmHg 90%
    23:00 +27°C° 0.2 mm 2 m/s 755 mmHg 90%

    5 Iunie, Vineri

    Timp Temperatura Precipitaţii Vânt Presiune Umiditate
    00:00 +27°C° 0.2 mm 2 m/s 755 mmHg 90%
    01:00 +27°C° 0.2 mm 2 m/s 755 mmHg 90%
    02:00 +27°C° 0 mm 2 m/s 754 mmHg 90%
    03:00 +26°C° 0 mm 2 m/s 754 mmHg 91%
    04:00 +26°C° 0 mm 2 m/s 754 mmHg 91%
    05:00 +27°C° 0.1 mm 2 m/s 754 mmHg 90%
    06:00 +27°C° 0.1 mm 2 m/s 755 mmHg 90%
    07:00 +27°C° 0.1 mm 2 m/s 755 mmHg 89%
    08:00 +28°C° 2.3 mm 2 m/s 756 mmHg 86%
    09:00 +29°C° 2.3 mm 3 m/s 756 mmHg 84%
    10:00 +30°C° 2.3 mm 3 m/s 757 mmHg 81%
    11:00 +29°C° 2.4 mm 3 m/s 756 mmHg 84%
    12:00 +28°C° 2.4 mm 3 m/s 756 mmHg 87%
    13:00 +27°C° 2.4 mm 3 m/s 755 mmHg 90%
    14:00 +27°C° 0.3 mm 3 m/s 755 mmHg 89%
    15:00 +27°C° 0.3 mm 3 m/s 755 mmHg 88%
    16:00 +27°C° 0.3 mm 2 m/s 754 mmHg 88%
    17:00 +27°C° 0 mm 2 m/s 754 mmHg 88%
    18:00 +27°C° 0 mm 2 m/s 755 mmHg 89%
    19:00 +27°C° 0 mm 2 m/s 755 mmHg 89%
    20:00 +26°C° 0 mm 2 m/s 755 mmHg 89%
    21:00 +26°C° 0 mm 2 m/s 756 mmHg 89%
    22:00 +26°C° 0 mm 2 m/s 756 mmHg 88%
    23:00 +26°C° 0 mm 2 m/s 756 mmHg 88%

    6 Iunie, Sâmbătă

    Timp Temperatura Precipitaţii Vânt Presiune Umiditate
    00:00 +26°C° 0 mm 2 m/s 756 mmHg 89%
    01:00 +26°C° 0 mm 2 m/s 756 mmHg 89%
    02:00 +26°C° 0 mm 2 m/s 756 mmHg 89%
    03:00 +26°C° 0 mm 1 m/s 755 mmHg 90%
    04:00 +26°C° 0 mm 1 m/s 755 mmHg 90%
    05:00 +26°C° 0 mm 1 m/s 755 mmHg 89%
    06:00 +26°C° 0 mm 1 m/s 756 mmHg 88%
    07:00 +27°C° 0 mm 1 m/s 756 mmHg 87%
    08:00 +28°C° 0 mm 1 m/s 756 mmHg 83%
    09:00 +29°C° 0 mm 1 m/s 756 mmHg 79%
    10:00 +30°C° 0 mm 1 m/s 757 mmHg 75%
    11:00 +30°C° 0.4 mm 1 m/s 756 mmHg 74%
    12:00 +30°C° 0.4 mm 2 m/s 756 mmHg 73%
    13:00 +31°C° 0.4 mm 2 m/s 756 mmHg 73%
    14:00 +31°C° 0.5 mm 2 m/s 755 mmHg 73%
    15:00 +31°C° 0.5 mm 2 m/s 755 mmHg 74%
    16:00 +30°C° 0.5 mm 2 m/s 754 mmHg 75%
    17:00 +30°C° 0 mm 2 m/s 754 mmHg 79%
    18:00 +29°C° 0 mm 3 m/s 754 mmHg 83%
    19:00 +28°C° 0 mm 3 m/s 755 mmHg 87%
    20:00 +27°C° 0 mm 3 m/s 755 mmHg 88%
    21:00 +27°C° 0 mm 3 m/s 756 mmHg 89%
    22:00 +27°C° 0 mm 3 m/s 756 mmHg 89%
    23:00 +27°C° 0 mm 2 m/s 756 mmHg 89%
    Arată mai mult